| time (UTC) | temp C | wind direction | speed KPH | gust KPH | rain 1hr cm | rain 24hr cm | rain mn cm | humidity % | barometer mb |
| 20260902054506 | 22 | 345 | 0.0 | 0.0 | 0.00 | 1.63 | 0.00 | 96 | 1017.1 |
| 20260902053006 | 22 | 345 | 0.0 | 0.0 | 0.00 | 1.63 | 0.00 | 96 | 1017.3 |
| 20260902051528 | 22 | 345 | 0.0 | 0.0 | 0.00 | 1.63 | 0.00 | 96 | 1017.4 |
| 20260902050024 | 22 | 345 | 0.0 | 0.0 | 0.00 | 1.63 | 0.00 | 96 | 1017.4 |
| 20260902044537 | 22 | 345 | 0.0 | 0.0 | 0.00 | 1.63 | 0.00 | 96 | 1017.3 |
| 20260902043020 | 22 | 345 | 0.0 | 0.0 | 0.00 | 1.63 | 0.00 | 96 | 1017.3 |
| 20260902041516 | 22 | 345 | 0.0 | 3.2 | 0.00 | 1.63 | 0.00 | 96 | 1017.4 |
| 20260902040012 | 22 | 345 | 0.0 | 0.0 | 0.00 | 1.63 | 0.00 | 95 | 1017.1 |
| 20260902034511 | 22 | 345 | 0.0 | 0.0 | 0.03 | 1.63 | 1.63 | 95 | 1016.7 |
| 20260902033029 | 22 | 345 | 0.0 | 3.2 | 0.03 | 1.63 | 1.63 | 95 | 1016.6 |
| 20260902031540 | 22 | 345 | 0.0 | 3.2 | 0.03 | 1.63 | 1.63 | 95 | 1016.8 |
| 20260902030027 | 22 | 345 | 0.0 | 0.0 | 0.03 | 1.63 | 1.63 | 95 | 1016.1 |
| 20260902024527 | 22 | 345 | 0.0 | 0.0 | 0.00 | 1.60 | 1.60 | 95 | 1015.7 |
| 20260902023023 | 22 | 345 | 0.0 | 3.2 | 0.00 | 1.60 | 1.60 | 95 | 1016.0 |
| 20260902021525 | 22 | 345 | 0.0 | 3.2 | 0.00 | 1.60 | 1.60 | 94 | 1016.4 |
| 20260902020016 | 22 | 279 | 0.0 | 0.0 | 0.03 | 1.60 | 1.60 | 94 | 1016.0 |
| 20260902014531 | 22 | 279 | 0.0 | 3.2 | 0.91 | 1.60 | 1.60 | 94 | 1015.8 |
| 20260902013029 | 23 | 3 | 0.0 | 1.6 | 1.60 | 1.60 | 1.60 | 93 | 1015.1 |
| 20260902011531 | 22 | 91 | 0.0 | 3.2 | 1.60 | 1.60 | 1.60 | 92 | 1014.4 |
| 20260902010030 | 23 | 168 | 1.6 | 8.0 | 1.57 | 1.57 | 1.57 | 90 | 1014.7 |
| 20260902004504 | 25 | 288 | 1.6 | 24.1 | 0.64 | 0.64 | 0.64 | 85 | 1015.0 |
| 20260902003006 | 27 | 307 | 0.0 | 3.2 | 0.00 | 0.00 | 0.00 | 87 | 1013.9 |
| 20260902001503 | 27 | 307 | 0.0 | 0.0 | 0.00 | 0.00 | 0.00 | 84 | 1013.5 |
| 20260902000004 | 28 | 307 | 0.0 | 0.0 | 0.00 | 0.00 | 0.00 | 83 | 1013.7 |
| 20260901234509 | 28 | 307 | 0.0 | 0.0 | 0.00 | 0.00 | 0.00 | 81 | 1013.1 |
| 20260901233003 | 28 | 307 | 0.0 | 0.0 | 0.00 | 0.00 | 0.00 | 80 | 1013.1 |
| 20260901231504 | 28 | 307 | 0.0 | 0.0 | 0.00 | 0.00 | 0.00 | 80 | 1013.5 |
| 20260901230011 | 29 | 307 | 0.0 | 0.0 | 0.00 | 0.00 | 0.00 | 78 | 1013.4 |
| 20260901224504 | 30 | 307 | 0.0 | 0.0 | 0.00 | 0.00 | 0.00 | 75 | 1013.4 |
| 20260901223005 | 30 | 222 | 0.0 | 3.2 | 0.00 | 0.00 | 0.00 | 74 | 1013.6 |
| 20260901221512 | 30 | 321 | 0.0 | 3.2 | 0.00 | 0.00 | 0.00 | 73 | 1013.5 |
| 20260901220007 | 30 | 238 | 0.0 | 3.2 | 0.00 | 0.00 | 0.00 | 73 | 1013.4 |
| 20260901214504 | 31 | 237 | 0.0 | 4.8 | 0.00 | 0.00 | 0.00 | 71 | 1013.7 |
| 20260901213004 | 31 | 195 | 0.0 | 4.8 | 0.00 | 0.00 | 0.00 | 70 | 1013.7 |
| 20260901211504 | 31 | 228 | 1.6 | 4.8 | 0.00 | 0.00 | 0.00 | 70 | 1013.7 |
| 20260901210012 | 31 | 241 | 0.0 | 6.4 | 0.00 | 0.00 | 0.00 | 70 | 1013.8 |
| 20260901204503 | 31 | 186 | 0.0 | 4.8 | 0.00 | 0.00 | 0.00 | 71 | 1013.9 |
| 20260901203007 | 31 | 78 | 1.6 | 9.7 | 0.00 | 0.00 | 0.00 | 68 | 1014.0 |
| 20260901201521 | 31 | 130 | 1.6 | 6.4 | 0.00 | 0.00 | 0.00 | 1014.1 | |
| 20260901200008 | 31 | 312 | 0.0 | 6.4 | 0.00 | 0.00 | 0.00 | 67 | 1014.1 |
| 20260901194508 | 31 | 165 | 0.0 | 6.4 | 0.00 | 0.00 | 0.00 | 69 | 1014.1 |
| 20260901193006 | 31 | 225 | 0.0 | 3.2 | 0.00 | 0.00 | 0.00 | 68 | 1014.3 |
| 20260901191512 | 31 | 321 | 1.6 | 8.0 | 0.00 | 0.00 | 0.00 | 67 | 1014.4 |
| 20260901190011 | 31 | 2 | 0.0 | 6.4 | 0.00 | 0.00 | 0.00 | 67 | 1014.5 |
| 20260901184509 | 30 | 311 | 1.6 | 6.4 | 0.00 | 0.00 | 0.00 | 68 | 1014.6 |
| 20260901183010 | 30 | 125 | 0.0 | 4.8 | 0.00 | 0.00 | 0.00 | 71 | 1014.7 |
| 20260901181511 | 30 | 144 | 0.0 | 3.2 | 0.00 | 0.00 | 0.00 | 71 | 1014.8 |
| 20260901180012 | 30 | 349 | 0.0 | 4.8 | 0.00 | 0.00 | 0.00 | 73 | 1014.6 |
| 20260901174514 | 29 | 168 | 0.0 | 3.2 | 0.00 | 0.00 | 0.00 | 75 | 1015.1 |
| 20260901173014 | 28 | 148 | 0.0 | 3.2 | 0.00 | 0.00 | 0.00 | 79 | 1015.2 |
| 20260901171512 | 28 | 245 | 0.0 | 3.2 | 0.00 | 0.00 | 0.00 | 81 | 1015.4 |
| 20260901170016 | 27 | 267 | 0.0 | 0.0 | 0.00 | 0.00 | 0.00 | 85 | 1015.5 |
| 20260901164512 | 26 | 267 | 0.0 | 0.0 | 0.00 | 0.00 | 0.00 | 88 | 1015.8 |
| 20260901163016 | 26 | 267 | 0.0 | 0.0 | 0.00 | 0.00 | 0.00 | 87 | 1016.1 |
| 20260901161532 | 26 | 267 | 0.0 | 0.0 | 0.00 | 0.00 | 0.00 | 86 | 1016.2 |
| 20260901160033 | 27 | 267 | 0.0 | 3.2 | 0.00 | 0.00 | 0.00 | 81 | 1015.9 |
| 20260901154503 | 27 | 267 | 0.0 | 3.2 | 0.00 | 0.00 | 0.00 | 85 | 1016.0 |
| 20260901153004 | 26 | 224 | 0.0 | 0.0 | 0.00 | 0.00 | 0.00 | 83 | 1015.9 |
| 20260901151520 | 27 | 314 | 0.0 | 6.4 | 0.00 | 0.00 | 0.00 | 83 | 1016.2 |
| 20260901150016 | 26 | 245 | 0.0 | 4.8 | 0.00 | 0.00 | 0.00 | 84 | 1016.3 |
| 20260901144515 | 26 | 124 | 0.0 | 6.4 | 0.00 | 0.00 | 0.00 | 84 | 1016.5 |
| 20260901143012 | 26 | 207 | 0.0 | 4.8 | 0.00 | 0.00 | 0.00 | 87 | 1016.4 |
| 20260901141508 | 25 | 154 | 1.6 | 6.4 | 0.00 | 0.00 | 0.00 | 87 | 1016.3 |
| 20260901140007 | 25 | 265 | 0.0 | 3.2 | 0.00 | 0.00 | 0.00 | 91 | 1016.2 |
| 20260901134504 | 25 | 265 | 0.0 | 3.2 | 0.00 | 0.00 | 0.00 | 91 | 1016.0 |
| 20260901133004 | 25 | 265 | 0.0 | 3.2 | 0.00 | 0.00 | 0.00 | 91 | 1016.1 |
| 20260901131524 | 25 | 265 | 0.0 | 3.2 | 0.00 | 0.00 | 0.00 | 91 | 1016.4 |
| 20260901130023 | 24 | 201 | 0.0 | 8.0 | 0.00 | 0.00 | 0.00 | 93 | 1016.5 |
| 20260901124522 | 23 | 283 | 0.0 | 4.8 | 0.00 | 0.00 | 0.00 | 95 | 1016.5 |
| 20260901123016 | 23 | 243 | 0.0 | 3.2 | 0.00 | 0.00 | 0.00 | 96 | 1016.6 |
| 20260901121515 | 22 | 236 | 0.0 | 3.2 | 0.00 | 0.00 | 0.00 | 96 | 1016.4 |
| 20260901120007 | 22 | 237 | 0.0 | 4.8 | 0.00 | 0.00 | 0.00 | 96 | 1016.6 |
| 20260901114506 | 22 | 213 | 0.0 | 0.0 | 0.00 | 0.00 | 0.00 | 96 | 1016.8 |
| 20260901113032 | 21 | 213 | 0.0 | 0.0 | 0.00 | 0.00 | 0.00 | 96 | 1016.8 |
| 20260901111526 | 21 | 213 | 0.0 | 0.0 | 0.00 | 0.00 | 0.00 | 96 | 1016.7 |
| 20260901110026 | 21 | 213 | 0.0 | 0.0 | 0.00 | 0.00 | 0.00 | 96 | 1016.6 |
| 20260901104523 | 21 | 213 | 0.0 | 0.0 | 0.00 | 0.00 | 0.00 | 96 | 1016.5 |
| 20260901103018 | 21 | 213 | 0.0 | 0.0 | 0.00 | 0.00 | 0.00 | 96 | 1016.6 |
| 20260901101519 | 21 | 213 | 0.0 | 0.0 | 0.00 | 0.00 | 0.00 | 96 | 1016.5 |
| 20260901100013 | 21 | 213 | 0.0 | 0.0 | 0.00 | 0.00 | 0.00 | 96 | 1016.4 |
| 20260901094512 | 21 | 213 | 0.0 | 0.0 | 0.00 | 0.00 | 0.00 | 96 | 1016.3 |
| 20260901093034 | 21 | 213 | 0.0 | 0.0 | 0.00 | 0.00 | 0.00 | 96 | 1016.3 |
| 20260901091529 | 21 | 213 | 0.0 | 0.0 | 0.00 | 0.00 | 0.00 | 96 | 1016.5 |
| 20260901090033 | 21 | 213 | 0.0 | 0.0 | 0.00 | 0.00 | 0.00 | 96 | 1016.6 |
| 20260901084532 | 22 | 213 | 0.0 | 0.0 | 0.00 | 0.00 | 0.00 | 96 | 1016.7 |
| 20260901083031 | 22 | 213 | 0.0 | 0.0 | 0.00 | 0.00 | 0.00 | 96 | 1016.7 |
| 20260901081523 | 22 | 213 | 0.0 | 0.0 | 0.00 | 0.00 | 0.00 | 95 | 1016.8 |
| 20260901080017 | 22 | 213 | 0.0 | 0.0 | 0.00 | 0.00 | 0.00 | 95 | 1016.6 |
| 20260901074533 | 22 | 213 | 0.0 | 0.0 | 0.00 | 0.00 | 0.00 | 95 | 1016.7 |
| 20260901073032 | 22 | 213 | 0.0 | 0.0 | 0.00 | 0.00 | 0.00 | 95 | 1016.7 |
| 20260901071530 | 22 | 213 | 0.0 | 0.0 | 0.00 | 0.00 | 0.00 | 95 | 1016.7 |
| 20260901070032 | 22 | 213 | 0.0 | 0.0 | 0.00 | 0.00 | 0.00 | 95 | 1016.8 |
| 20260901064531 | 22 | 213 | 0.0 | 0.0 | 0.00 | 0.00 | 0.00 | 95 | 1017.1 |
| 20260901063028 | 22 | 213 | 0.0 | 0.0 | 0.00 | 0.00 | 0.00 | 95 | 1017.2 |
| 20260901061527 | 22 | 213 | 0.0 | 0.0 | 0.00 | 0.00 | 0.00 | 95 | 1017.2 |
| 20260901060023 | 22 | 213 | 0.0 | 3.2 | 0.00 | 0.00 | 0.00 | 95 | 1017.3 |